Regional Weather Roundup
Issued by NWS Charleston, SC

Current Version | Previous Version | Graphics & Text | Print | Product List | Glossary On
Versions: 1 2 3 4 5 6 7 8 9 10 11 12 13 14 15 16 17 18 19 20 21 22 23 24 25 26 27 28 29 30 31 32 33 34 35 36 37 38 39 40 41 42 43 44 45 46 47 48 49 50
000 ASUS42 KCHS 021112 RWRCHS REGIONAL WEATHER ROUNDUP NATIONAL WEATHER SERVICE CHARLESTON SC 700 AM EDT SUN AUG 02 2015 NOTE: "FAIR" INDICATES FEW OR NO CLOUDS BELOW 12,000 FEET WITH NO SIGNIFICANT WEATHER AND/OR OBSTRUCTIONS TO VISIBILITY. NOT ALL STATIONS ARE QUALITY CONTROLLED BY THE NATIONAL WEATHER SERVICE. USE DATA WITH CAUTION...ESPECIALLY DEWPOINT OBSERVATIONS. SCZ027-030-031-034>040-042>050-021200- ...SOUTHEAST SOUTH CAROLINA... CITY SKY/WX TMP DP RH WIND PRES REMARKS N CHARLESTON PTCLDY 76 74 93 CALM 29.92R WATERFRONT PRK N/A 79 76 91 CALM 29.89R MOUNT PLEASANT LGT RAIN 73 73 100 CALM 29.92R JOHNS ISLAND PTSUNNY 75 75 100 CALM 29.92R PINOPOLIS NOT AVBL MONCKS CORNER FAIR 73 70 88 CALM 29.93R FOG SUMMERVILLE FAIR 72 72 100 CALM 29.93R BEAUFORT MCAS MOCLDY 76 74 93 CALM 29.92R BEAUFORT ARPT FAIR 75 75 100 CALM 29.91R FOG HILTON HEAD IS RAIN 75 72 88 SW7 29.93R WALTERBORO FOG 73 72 94 CALM 29.93R VSB<1/4 ALLENDALE FOG 73 73 100 CALM 29.91R VSB<1/4 ...SOUTHERN MIDLANDS AND PEE DEE... CITY SKY/WX TMP DP RH WIND PRES REMARKS GEORGETOWN NOT AVBL KINGSTREE NOT AVBL ORANGEBURG FOG 75 74 96 NE3 29.93R VSB 1/4 BARNWELL FOG 73 73 100 NE3 29.93R VSB<1/4 AIKEN FAIR 70 68 94 CALM 29.97R FOG MANNING RAIN 72 72 100 CALM 29.93S COLUMBIA MOCLDY 75 72 90 CALM 29.93R FOG SUMTER FOG 75 73 94 W1 29.92R VSB 1/4 FLORENCE CLEAR 74 72 93 CALM 29.93R MYRTLE BEACH MOCLDY 75 72 88 CALM 29.95R N MYRTLE BEACH CLOUDY 75 72 90 W3 29.93R $$ GAZ063-065-086>088-099>101-113>116-118-119-134>141-150-021200- ...SOUTHEAST GEORGIA... CITY SKY/WX TMP DP RH WIND PRES REMARKS SAVANNAH ARPT CLOUDY 76 73 91 S3 29.92R HUNTER AAF DRIZZLE 77 77 100 W3 29.89R FORT STEWART NOT AVBL STATESBORO CLOUDY 75 32 21 S6 29.91R SYLVANIA FOG 76 76 100 CALM 29.92R VSB 1/2 CLAXTON NOT AVBL ...CSRA...CENTRAL AND FAR SOUTHEAST GEORGIA... CITY SKY/WX TMP DP RH WIND PRES REMARKS THOMSON CLEAR 73 73 100 CALM 29.97R AUGUSTA-BUSH FOG 73 73 100 CALM 29.91R VSB 1/4 AUGUSTA-DANIEL PTCLDY 75 71 87 E3 29.93R SWAINSBORO CLOUDY N/A N/A N/A CALM 29.93R FOG VIDALIA CLOUDY 75 73 94 E3 29.91R FOG EASTMAN CLOUDY 75 75 100 CALM 29.93R FOG HAZLEHURST CLOUDY 77 77 100 CALM 29.89R ALMA CLOUDY 76 74 93 E3 29.88R WAYCROSS CLOUDY 78 77 94 SE6 29.89R JESUP CLOUDY 79 75 89 CALM 29.90R BAXLEY CLOUDY 77 75 94 CALM 29.89R BRUNSWICK CLOUDY 77 72 83 S5 29.91R SAINT SIMONS MOCLDY 76 72 87 SW6 29.90R $$ SCZ027-028-034-036>038-045-046-048>050-GAZ119-141-021200- ...LAKE AND SUPPLEMENTAL COASTAL OBSERVATIONS... STATION/POSITION TIME TEMP WIND PRES WAVE SWELL AIR SEA DIR/SP/G HT/PER HT/PER/DIR (UTC) (F) (DEG/KT/KT) (MB) (FT/S) (FT/S/D) UPR LAKE MARION NOT AVBL WINYAH BAY 0945 73 CALM 1012.0 LAKE MURRAY 1000 77 CALM / 1 1012.5S ACE BASIN NERRS NOT AVBL FORT PULASKI 1000 78 86 190/ 3/ 5 1012.7R SAPELO ISLAND 1000 77 190/ 5 1012.0S $$ ANZ835-935-AMZ111-154-330-350-352-354-370-450-454-472-021200- ...C-MAN AND BUOY OBSERVATIONS... STATION/POSITION TIME TEMP WIND PRES WAVE SWELL AIR SEA DIR/SP/G HT/PER HT/PER/DIR (UTC) (F) (DEG/KT/KT) (MB) (FT/S) (FT/S/D) BUOY 41004 1050 81 84 240/ 8/ 10 1012.7R 5/ 7 5/ 7 BUOY 41008 1050 80 83 200/ 12/ 16 1012.6R 4/ 6 3/150/ 6 FOLLY BEACH CMAN 1000 80 290/ 2/ 2 1012.7R CAPERS NEARSHORE 1008 81 230/ 6/ 8 1012.6S FRIPP NEARSHORE 1000 81 210/ 10/ 14 1012.0R STATION/POSITION TIME TEMP WIND PRES WAVE SWELL AIR SEA DIR/SP/G HT/PER HT/PER/DIR (UTC) (F) (DEG/KT/KT) (MB) (FT/S) (FT/S/D) 5E ST. MARYS GA 1021 83 N/A 4/ 6 FRYING PAN BUOY 1050 82 83 290/ 6/ 8 1013.6R 4/ 7 3/170/ 7 BUOY 41025 1050 80 85 290/ 10/ 12 1012.9R 3/ 7 3/150/ 7 CAPE LOOKOUT NC 1000 79 280/ 9/ 11 1012.2F BUOY 41002 1050 82 81 220/ 12/ 16 1015.6R 6/ 7 5/260/ 7 BUOY 41010 1020 83 83 170/ 14/ 16 1014.5F ST AUGUSTINE FL 1100 74 79 190/ 12/ 14 1013.3R $$

USA.gov is the U.S. government's official web portal to all federal, state and local government web resources and services.